Home > Weather > Frankfort > Past weeks

Flag for USA Past Weather in Frankfort, Kentucky, USA — Yesterday and Last 2 Weeks

Now
86 °F

Sunny.


Feels Like: 95 °F
Forecast: 75 / 92 °F
Wind: 6 mph from North

Location: Capital City Airport

Current Time: Jul 25, 2016 at 6:11:00 PM

Latest Report: Jul 25, 2016 at 4:53 PM


Visibility: 10 mi

Pressure: 29.96 "Hg

Humidity: 70%

Dew Point: 75 °F

Location of FrankfortLocation

Past Weather in Frankfort — Graph

°F

Frankfort Temperature Yesterday

Maximum temperature yesterday: 93 °F (at 2:53 PM)
Minimum temperature yesterday: 74 °F (at 6:53 AM)
Average temperature yesterday: 84 °F

High & Low Weather Summary for the Past Weeks

 TemperatureHumidityPressure
High93 °F (Jul 24, 2:53 PM)93% (Jul 15, 4:53 AM)30.27 "Hg (Jul 15, 4:53 AM)
Low65 °F (Jul 11, 4:53 AM)40% (Jul 10, 5:53 PM)29.89 "Hg (Jul 14, 4:53 PM)
Average79 °F73%30.05 "Hg
* Reported Jul 10 4:53 PM — Jul 25 4:53 PM, Frankfort, Weather by CustomWeather, © 2016

Note: Actual official high and low records may vary slightly from our data, if they occured in-between our weather recording intervals... More about our weather records

Advertising

Frankfort Weather History for the Previous 24 Hours

Scroll right to see more
 ConditionsComfort  
Time TempWeatherWind HumidityBarometerVisibility
4:53 PM
Mon, Jul 25
86 °FSunny.6 mph70%29.96 "Hg10 mi
3:53 PM84 °FSunny.6 mph72%29.95 "Hg10 mi
2:53 PM76 °FThundershowers. Cloudy.8 mph80%30.00 "Hg10 mi
1:53 PM87 °FBroken clouds.9 mph63%29.97 "Hg10 mi
12:53 PM91 °FScattered clouds.5 mph60%29.98 "Hg10 mi
11:53 AM90 °FScattered clouds.8 mph61%30.00 "Hg10 mi
10:53 AM87 °FSunny.7 mph67%29.99 "Hg10 mi
9:53 AM85 °FSunny.5 mph72%29.98 "Hg10 mi
8:53 AM82 °FSunny.9 mph79%29.99 "Hg10 mi
7:53 AM79 °FScattered clouds.No wind88%30.00 "Hg9 mi
6:53 AM77 °FPassing clouds.No wind85%29.99 "Hg8 mi
5:53 AM77 °FClear.No wind88%29.98 "Hg9 mi
4:53 AM77 °FClear.3 mph88%29.98 "Hg9 mi
3:53 AM77 °FClear.No wind88%29.99 "Hg10 mi
2:53 AM79 °FClear.3 mph82%29.98 "Hg10 mi
1:53 AM79 °FClear.No wind84%29.97 "Hg10 mi
12:53 AM80 °FClear.No wind81%29.95 "Hg10 mi
11:53 PM
Sun, Jul 24
80 °FClear.3 mph81%29.96 "Hg10 mi
10:53 PM81 °FClear.3 mph79%29.96 "Hg10 mi
9:53 PM81 °FSunny.No wind82%29.96 "Hg10 mi
8:53 PM86 °FSunny.3 mph70%29.95 "Hg10 mi
7:53 PM89 °FSunny.6 mph61%29.95 "Hg10 mi
6:53 PM91 °FSunny.8 mph56%29.94 "Hg10 mi
Weather by CustomWeather, © 2016

See weather overviewHow to use our weather pages